When you browse on this site, cookies collect data to enhance your experience and personalize the content and advertising you see.
Visit our Privacy Policy to learn more. By continuing to use the site, you agree to this use of cookies and data.
  • In Slovakia
  • List of Countries
  • For 7 days
  • Water Temperature
  • Weather Map
  • Weather Widgets
  • user-avatar
    Login

    Hourly Weather Canillo

    Today, 19 November, Tuesday

    Time Temperature Precipitation Wind Pressure Humidity
    00:00 -8°C° 0 mm 2 mps 611 mmHg 85%
    01:00 -8°C° 0 mm 2 mps 611 mmHg 83%
    02:00 -8°C° 0 mm 2 mps 611 mmHg 82%
    03:00 -8°C° 0 mm 2 mps 611 mmHg 81%
    04:00 -9°C° 0 mm 2 mps 611 mmHg 79%
    05:00 -9°C° 0 mm 2 mps 611 mmHg 77%
    06:00 -9°C° 0 mm 2 mps 611 mmHg 75%
    07:00 -7°C° 0 mm 2 mps 612 mmHg 71%
    08:00 -3°C° 0 mm 1 mps 613 mmHg 67%
    09:00 -1°C° 0 mm 1 mps 614 mmHg 64%
    10:00 0°C° 0 mm 1 mps 614 mmHg 63%
    11:00 +1°C° 0 mm 1 mps 614 mmHg 61%
    12:00 +2°C° 0 mm 1 mps 615 mmHg 60%
    13:00 +2°C° 0 mm 1 mps 614 mmHg 65%
    14:00 +2°C° 0 mm 1 mps 614 mmHg 69%
    15:00 +1°C° 0 mm 1 mps 613 mmHg 73%
    16:00 -1°C° 0 mm 1 mps 613 mmHg 76%
    17:00 -3°C° 0 mm 1 mps 612 mmHg 78%
    18:00 -6°C° 0 mm 1 mps 611 mmHg 81%
    19:00 -6°C° 0 mm 1 mps 611 mmHg 80%
    20:00 -6°C° 0 mm 1 mps 611 mmHg 80%
    21:00 -6°C° 0 mm 1 mps 611 mmHg 79%
    22:00 -6°C° 0 mm 1 mps 611 mmHg 78%
    23:00 -6°C° 0 mm 1 mps 611 mmHg 77%

    Tomorrow, 20 November, Wednesday

    Time Temperature Precipitation Wind Pressure Humidity
    00:00 -6°C° 0 mm 1 mps 611 mmHg 76%
    01:00 -7°C° 0 mm 2 mps 611 mmHg 75%
    02:00 -7°C° 0 mm 2 mps 611 mmHg 74%
    03:00 -7°C° 0 mm 2 mps 610 mmHg 73%
    04:00 -7°C° 0 mm 2 mps 610 mmHg 70%
    05:00 -7°C° 0 mm 2 mps 610 mmHg 68%
    06:00 -7°C° 0 mm 2 mps 610 mmHg 65%
    07:00 -3°C° 0 mm 1 mps 611 mmHg 63%
    08:00 -2°C° 0 mm 1 mps 611 mmHg 61%
    09:00 0°C° 0 mm 1 mps 612 mmHg 59%
    10:00 0°C° 0 mm 1 mps 612 mmHg 59%
    11:00 +1°C° 0 mm 1 mps 612 mmHg 60%
    12:00 +1°C° 0 mm 2 mps 612 mmHg 60%
    13:00 -1°C° 0 mm 2 mps 611 mmHg 64%
    14:00 -1°C° 0 mm 2 mps 611 mmHg 68%
    15:00 -2°C° 0 mm 2 mps 610 mmHg 71%
    16:00 -3°C° 0 mm 2 mps 610 mmHg 75%
    17:00 -5°C° 0 mm 2 mps 609 mmHg 78%
    18:00 -7°C° 0 mm 2 mps 608 mmHg 82%
    19:00 -7°C° 0 mm 2 mps 608 mmHg 81%
    20:00 -7°C° 0 mm 2 mps 608 mmHg 81%
    21:00 -7°C° 0 mm 2 mps 608 mmHg 80%
    22:00 -6°C° 0 mm 2 mps 608 mmHg 81%
    23:00 -6°C° 0 mm 2 mps 608 mmHg 81%

    Day after tomorrow, 21 November, Thursday

    Time Temperature Precipitation Wind Pressure Humidity
    00:00 -6°C° 0 mm 2 mps 608 mmHg 82%
    01:00 -6°C° 0 mm 2 mps 608 mmHg 83%
    02:00 -5°C° 0 mm 2 mps 608 mmHg 85%
    03:00 -5°C° 0 mm 2 mps 608 mmHg 86%
    04:00 -5°C° 0 mm 2 mps 608 mmHg 87%
    05:00 -2°C° 0 mm 1 mps 608 mmHg 89%
    06:00 -2°C° 0 mm 1 mps 608 mmHg 90%
    07:00 -1°C° 0 mm 1 mps 609 mmHg 88%
    08:00 0°C° 0 mm 1 mps 609 mmHg 86%
    09:00 +1°C° 0 mm 1 mps 610 mmHg 84%
    10:00 +2°C° 0 mm 1 mps 610 mmHg 82%
    11:00 +3°C° 0 mm 1 mps 610 mmHg 81%
    12:00 +3°C° 0 mm 1 mps 611 mmHg 80%
    13:00 +3°C° 0 mm 1 mps 610 mmHg 82%
    14:00 +2°C° 0 mm 1 mps 610 mmHg 84%
    15:00 +2°C° 0 mm 1 mps 610 mmHg 86%
    16:00 +1°C° 0 mm 1 mps 609 mmHg 88%
    17:00 -1°C° 0 mm 1 mps 609 mmHg 90%
    18:00 -2°C° 0 mm 1 mps 609 mmHg 92%
    19:00 -2°C° 0 mm 1 mps 609 mmHg 90%
    20:00 -2°C° 0 mm 1 mps 609 mmHg 88%
    21:00 -2°C° 0 mm 1 mps 609 mmHg 87%
    22:00 -2°C° 0 mm 1 mps 609 mmHg 88%
    23:00 -2°C° 0 mm 1 mps 609 mmHg 89%

    22 November, Friday

    Time Temperature Precipitation Wind Pressure Humidity
    00:00 -5°C° 0 mm 2 mps 609 mmHg 90%
    01:00 -4°C° 0 mm 2 mps 609 mmHg 91%
    02:00 -4°C° 0 mm 2 mps 608 mmHg 92%
    03:00 -4°C° 0 mm 2 mps 608 mmHg 93%
    04:00 -4°C° 0 mm 2 mps 608 mmHg 93%
    05:00 -4°C° 0 mm 2 mps 608 mmHg 93%
    06:00 -4°C° 0 mm 2 mps 608 mmHg 93%
    07:00 -4°C° 0 mm 3 mps 608 mmHg 91%
    08:00 -2°C° 0 mm 3 mps 608 mmHg 90%
    09:00 -1°C° 0 mm 3 mps 608 mmHg 88%
    10:00 -1°C° 0.2 mm 3 mps 608 mmHg 89%
    11:00 -2°C° 0.2 mm 4 mps 607 mmHg 91%
    12:00 -1°C° 0.2 mm 4 mps 607 mmHg 92%
    13:00 -2°C° 0.9 mm 4 mps 606 mmHg 93%
    14:00 -2°C° 0.9 mm 4 mps 605 mmHg 95%
    15:00 -2°C° 0.9 mm 4 mps 605 mmHg 96%
    16:00 -1°C° 1.3 mm 3 mps 604 mmHg 96%
    17:00 -1°C° 1.3 mm 3 mps 604 mmHg 95%
    18:00 -1°C° 1.3 mm 3 mps 604 mmHg 95%
    19:00 -1°C° 0.6 mm 2 mps 604 mmHg 96%
    20:00 -1°C° 0.6 mm 2 mps 604 mmHg 96%
    21:00 -1°C° 0.6 mm 2 mps 604 mmHg 96%
    22:00 +1°C° 0.1 mm 1 mps 604 mmHg 96%
    23:00 +1°C° 0.1 mm 1 mps 604 mmHg 97%

    23 November, Saturday

    Time Temperature Precipitation Wind Pressure Humidity
    00:00 0°C° 0.1 mm 0 mps 604 mmHg 97%
    01:00 +1°C° 0 mm 1 mps 604 mmHg 97%
    02:00 +1°C° 0 mm 1 mps 604 mmHg 96%
    03:00 0°C° 0 mm 1 mps 604 mmHg 96%
    04:00 0°C° 0 mm 1 mps 604 mmHg 95%
    05:00 0°C° 0 mm 1 mps 604 mmHg 94%
    06:00 -1°C° 0 mm 1 mps 604 mmHg 93%
    07:00 0°C° 0.1 mm 1 mps 604 mmHg 94%
    08:00 0°C° 0.1 mm 0 mps 605 mmHg 94%
    09:00 0°C° 0.1 mm 0 mps 606 mmHg 95%
    10:00 +1°C° 1.5 mm 1 mps 606 mmHg 94%
    11:00 -1°C° 1.5 mm 2 mps 606 mmHg 94%
    12:00 -1°C° 1.5 mm 2 mps 606 mmHg 94%
    13:00 -1°C° 0.4 mm 2 mps 606 mmHg 93%
    14:00 -2°C° 0.4 mm 2 mps 606 mmHg 92%
    15:00 -2°C° 0.4 mm 3 mps 606 mmHg 91%
    16:00 -3°C° 0.2 mm 2 mps 607 mmHg 92%
    17:00 -4°C° 0.2 mm 2 mps 607 mmHg 93%
    18:00 -4°C° 0.2 mm 2 mps 608 mmHg 94%
    19:00 -4°C° 0.2 mm 2 mps 608 mmHg 94%
    20:00 -4°C° 0.2 mm 2 mps 609 mmHg 94%
    21:00 -4°C° 0.2 mm 2 mps 609 mmHg 94%
    22:00 -4°C° 0.4 mm 2 mps 610 mmHg 94%
    23:00 -4°C° 0.4 mm 3 mps 610 mmHg 95%

    24 November, Sunday

    Time Temperature Precipitation Wind Pressure Humidity
    00:00 -4°C° 0.4 mm 3 mps 611 mmHg 95%
    01:00 -4°C° 0.3 mm 3 mps 611 mmHg 95%
    02:00 -4°C° 0.3 mm 3 mps 612 mmHg 96%
    03:00 -4°C° 0.3 mm 3 mps 612 mmHg 96%
    04:00 -4°C° 0.1 mm 3 mps 612 mmHg 96%
    05:00 -3°C° 0.1 mm 2 mps 613 mmHg 95%
    06:00 -3°C° 0.1 mm 2 mps 614 mmHg 95%
    07:00 -2°C° 0 mm 2 mps 614 mmHg 92%
    08:00 -1°C° 0 mm 2 mps 615 mmHg 90%
    09:00 -1°C° 0 mm 2 mps 616 mmHg 87%
    10:00 +2°C° 0 mm 1 mps 616 mmHg 85%
    11:00 +4°C° 0 mm 1 mps 617 mmHg 83%
    12:00 +4°C° 0 mm 0 mps 617 mmHg 82%
    13:00 +4°C° 0 mm 0 mps 617 mmHg 82%
    14:00 +3°C° 0 mm 0 mps 617 mmHg 82%
    15:00 +4°C° 0 mm 1 mps 617 mmHg 83%
    16:00 +3°C° 0 mm 1 mps 616 mmHg 80%
    17:00 +2°C° 0 mm 1 mps 616 mmHg 77%
    18:00 0°C° 0 mm 1 mps 615 mmHg 74%
    19:00 0°C° 0 mm 1 mps 615 mmHg 72%
    20:00 -2°C° 0 mm 2 mps 615 mmHg 69%
    21:00 -2°C° 0 mm 2 mps 616 mmHg 67%
    22:00 -2°C° 0 mm 2 mps 616 mmHg 65%
    23:00 -1°C° 0 mm 2 mps 615 mmHg 64%
    Show more